GW4817 Weather Reports


Display with metric or nautical units.
time (UTC)temp
F
wind
direction
speed
MPH
gust
MPH
rain 1hr
in
rain 24hr
in
rain mn
in
humidity
%
barometer
mb
20260504070350 96 230 4.0 5.0 0.00 0.00 0.00 53 1002.0
20260504050350 91 195 5.0 7.0 0.00 0.00 0.00 58 1004.0
20260504045851 91 138 9.0 13.0 0.00 0.00 0.00 58 1004.0
20260504045350 91 222 4.0 6.0 0.00 0.00 0.00 58 1004.0
20260504044851 90 165 3.0 3.0 0.00 0.00 0.00 59 1004.0
20260504044352 89 215 5.0 6.0 0.00 0.00 0.00 60 1004.0
20260504043850 89 134 4.0 6.0 0.00 0.00 0.00 60 1004.0
20260504043351 88 176 5.0 6.0 0.00 0.00 0.00 62 1004.0
20260504042850 88 234 6.0 7.0 0.00 0.00 0.00 64 1004.0
20260504042353 88 151 7.0 8.0 0.00 0.00 0.00 64 1004.0
20260504041851 88 204 5.0 9.0 0.00 0.00 0.00 64 1004.0
20260504041351 87 175 6.0 7.0 0.00 0.00 0.00 65 1005.0
20260504040851 87 209 7.0 8.0 0.00 0.00 0.00 65 1004.0
20260504040350 87 157 10.0 13.0 0.00 0.00 0.00 66 1004.0
20260504035850 87 176 5.0 7.0 0.00 0.00 0.00 67 1004.0
20260504035350 86 185 9.0 14.0 0.00 0.00 0.00 68 1004.0
20260504034851 86 159 8.0 10.0 0.00 0.00 0.00 69 1004.0
20260504034351 87 206 8.0 10.0 0.00 0.00 0.00 70 1004.0
20260504033850 87 192 6.0 8.0 0.00 0.00 0.00 70 1004.0
20260504033350 87 146 7.0 9.0 0.00 0.00 0.00 70 1005.0
20260504032851 87 155 5.0 7.0 0.00 0.00 0.00 70 1005.0
20260504032351 87 119 2.0 2.0 0.00 0.00 0.00 70 1004.0
20260504031852 87 138 2.0 3.0 0.00 0.00 0.00 70 1004.0
20260504031351 87 180 3.0 3.0 0.00 0.00 0.00 70 1004.0
20260504030853 87 143 3.0 3.0 0.00 0.00 0.00 70 1004.0
20260504030351 87 157 3.0 5.0 0.00 0.00 0.00 70 1004.0
20260504025851 86 51 2.0 2.0 0.00 0.00 0.00 70 1004.0
20260504025350 86 151 3.0 3.0 0.00 0.00 0.00 70 1004.0
20260504024851 86 120 3.0 3.0 0.00 0.00 0.00 69 1004.0
20260504024351 86 130 6.0 7.0 0.00 0.00 0.00 69 1004.0
20260504023850 87 90 1.0 1.0 0.00 0.00 0.00 69 1004.0
20260504023351 86 182 1.0 1.0 0.00 0.00 0.00 69 1003.0
20260504022851 86 129 1.0 1.0 0.00 0.00 0.00 69 1003.0
20260504022350 86 198 4.0 5.0 0.00 0.00 0.00 69 1003.0
20260504021850 86 128 3.0 3.0 0.00 0.00 0.00 70 1003.0
20260504021351 86 142 3.0 5.0 0.00 0.00 0.00 71 1003.0
20260504020851 85 167 3.0 3.0 0.00 0.00 0.00 71 1003.0
20260504020350 85 181 4.0 5.0 0.00 0.00 0.00 71 1003.0
20260504015851 85 120 3.0 3.0 0.00 0.00 0.00 72 1003.0
20260504015351 85 224 2.0 3.0 0.00 0.00 0.00 72 1003.0
20260504014850 85 129 3.0 3.0 0.00 0.00 0.00 72 1003.0
20260504014350 84 168 4.0 5.0 0.00 0.00 0.00 72 1002.0
20260504013850 84 162 1.0 2.0 0.00 0.00 0.00 71 1003.0
20260504013351 84 160 4.0 5.0 0.00 0.00 0.00 71 1002.0
20260504012850 84 152 5.0 8.0 0.00 0.00 0.00 71 1003.0
20260504012351 84 151 3.0 3.0 0.00 0.00 0.00 71 1003.0
20260504011850 84 108 1.0 1.0 0.00 0.00 0.00 72 1003.0
20260504011351 84 110 1.0 2.0 0.00 0.00 0.00 72 1003.0
20260504010851 84 116 3.0 6.0 0.00 0.00 0.00 73 1003.0
20260504010352 84 59 6.0 9.0 0.00 0.00 0.00 73 1003.0
20260504005850 84 164 6.0 8.0 0.00 0.00 0.00 73 1003.0
20260504005350 84 97 3.0 5.0 0.00 0.00 0.00 73 1002.0
20260504004851 84 121 3.0 3.0 0.00 0.00 0.00 74 1002.0
20260504004353 84 167 2.0 2.0 0.00 0.00 0.00 74 1002.0
20260504003850 84 116 3.0 5.0 0.00 0.00 0.00 74 1002.0
20260504003351 84 134 5.0 8.0 0.00 0.00 0.00 73 1002.0
20260504002850 84 104 3.0 3.0 0.00 0.00 0.00 72 1002.0
20260504002350 84 120 3.0 3.0 0.00 0.00 0.00 72 1002.0
20260504001850 84 70 3.0 5.0 0.00 0.00 0.00 71 1002.0
20260504001350 84 134 5.0 7.0 0.00 0.00 0.00 70 1002.0
20260504000850 84 74 5.0 8.0 0.00 0.00 0.00 70 1002.0
20260504000351 84 67 4.0 5.0 0.00 0.00 0.00 69 1002.0
20260503235851 84 75 2.0 3.0 0.00 0.00 0.00 70 1002.0
20260503235350 84 46 1.0 3.0 0.00 0.00 0.00 70 1002.0
20260503234850 85 120 6.0 8.0 0.00 0.00 0.00 70 1002.0
20260503234353 84 137 4.0 6.0 0.00 0.00 0.00 70 1002.0
20260503233851 84 154 1.0 5.0 0.00 0.00 0.00 70 1002.0
20260503233350 84 106 3.0 5.0 0.00 0.00 0.00 70 1002.0
20260503232851 84 84 3.0 5.0 0.00 0.00 0.00 71 1002.0
20260503232351 84 102 6.0 7.0 0.00 0.00 0.00 71 1002.0
20260503231851 84 107 3.0 3.0 0.00 0.00 0.00 72 1002.0
20260503231351 83 84 3.0 3.0 0.00 0.00 0.00 73 1002.0
20260503230850 83 69 1.0 5.0 0.00 0.00 0.00 74 1002.0
20260503230350 83 77 2.0 5.0 0.00 0.00 0.00 74 1002.0
20260503225851 82 96 2.0 3.0 0.00 0.00 0.00 74 1002.0
20260503225350 82 77 5.0 7.0 0.00 0.00 0.00 75 1002.0
20260503224851 82 140 5.0 8.0 0.00 0.00 0.00 76 1002.0
20260503224350 82 42 2.0 3.0 0.00 0.00 0.00 77 1002.0
20260503223850 83 64 7.0 10.0 0.00 0.00 0.00 76 1002.0
20260503223350 84 67 6.0 11.0 0.00 0.00 0.00 74 1002.0
20260503222850 84 154 2.0 3.0 0.00 0.00 0.00 72 1001.0
20260503222352 84 57 5.0 7.0 0.00 0.00 0.00 72 1001.0
20260503221850 84 87 6.0 7.0 0.00 0.00 0.00 71 1002.0
20260503221351 84 95 3.0 5.0 0.00 0.00 0.00 70 1001.0
20260503220850 85 72 5.0 7.0 0.00 0.00 0.00 71 1001.0
20260503220350 86 100 7.0 10.0 0.00 0.00 0.00 70 1001.0
20260503215851 87 91 3.0 6.0 0.00 0.00 0.00 70 1001.0
20260503215350 88 124 4.0 5.0 0.00 0.00 0.00 66 1002.0
20260503214850 88 106 0.0 0.0 0.00 0.00 0.00 66 1002.0
20260503214352 88 116 1.0 1.0 0.00 0.00 0.00 66 1002.0
20260503213851 88 149 0.0 0.0 0.00 0.00 0.00 66 1001.0
20260503213350 88 142 1.0 1.0 0.00 0.00 0.00 65 1002.0
20260503212850 87 140 0.0 0.0 0.00 0.00 0.00 66 1001.0
20260503212353 87 130 0.0 0.0 0.00 0.00 0.00 66 1001.0
20260503211851 87 172 0.0 0.0 0.00 0.00 0.00 66 1001.0
20260503211352 87 153 0.0 0.0 0.00 0.00 0.00 65 1001.0
20260503210851 87 135 0.0 0.0 0.00 0.00 0.00 65 1002.0
20260503210351 88 52 1.0 2.0 0.00 0.00 0.00 65 1002.0
20260503205850 88 135 1.0 2.0 0.00 0.00 0.00 65 1002.0
20260503205350 88 144 0.0 0.0 0.00 0.00 0.00 65 1002.0
20260503204850 88 180 0.0 1.0 0.00 0.00 0.00 65 1002.0
20260503204351 88 163 1.0 1.0 0.00 0.00 0.00 64 1002.0
20260503203851 89 170 2.0 3.0 0.00 0.00 0.00 63 1002.0
20260503203351 89 169 0.0 0.0 0.00 0.00 0.00 61 1002.0
20260503202850 89 166 1.0 1.0 0.00 0.00 0.00 59 1001.0
20260503202350 89 208 0.0 0.0 0.00 0.00 0.00 61 1001.0
20260503201850 89 181 0.0 0.0 0.00 0.00 0.00 60 1001.0
20260503201351 89 182 3.0 3.0 0.00 0.00 0.00 59 1002.0
20260503200850 89 154 0.0 0.0 0.00 0.00 0.00 59 1001.0
20260503200351 89 143 0.0 0.0 0.00 0.00 0.00 59 1002.0
20260503195850 89 56 1.0 1.0 0.00 0.00 0.00 59 1002.0
20260503195350 89 359 2.0 2.0 0.00 0.00 0.00 59 1002.0
20260503194851 89 132 0.0 1.0 0.00 0.00 0.00 59 1002.0
20260503194350 89 130 0.0 0.0 0.00 0.00 0.00 60 1002.0
20260503193850 89 104 2.0 2.0 0.00 0.00 0.00 60 1002.0
20260503193351 89 77 1.0 1.0 0.00 0.00 0.00 60 1002.0
20260503192851 89 108 1.0 2.0 0.00 0.00 0.00 61 1002.0
20260503192351 89 96 0.0 1.0 0.00 0.00 0.00 61 1002.0
20260503191851 89 118 0.0 0.0 0.00 0.00 0.00 60 1002.0
20260503191350 89 96 0.0 0.0 0.00 0.00 0.00 60 1002.0
20260503190851 89 154 0.0 0.0 0.00 0.00 0.00 60 1002.0
20260503190350 89 174 0.0 0.0 0.00 0.00 0.00 60 1002.0
20260503185850 89 138 0.0 0.0 0.00 0.00 0.00 60 1003.0
20260503185350 89 149 0.0 0.0 0.00 0.00 0.00 60 1003.0
20260503184851 89 78 3.0 3.0 0.00 0.00 0.00 60 1003.0
20260503184351 89 40 2.0 3.0 0.00 0.00 0.00 60 1003.0
20260503183851 89 345 1.0 2.0 0.00 0.00 0.00 59 1003.0
20260503183351 89 155 0.0 0.0 0.00 0.00 0.00 58 1003.0
20260503182851 89 21 2.0 2.0 0.00 0.00 0.00 58 1003.0
20260503182351 89 354 4.0 5.0 0.00 0.00 0.00 57 1003.0
20260503181851 89 128 0.0 0.0 0.00 0.00 0.00 56 1003.0
20260503181350 89 127 0.0 1.0 0.00 0.00 0.00 56 1003.0
20260503180851 90 348 5.0 5.0 0.00 0.00 0.00 56 1003.0
20260503180350 90 296 1.0 2.0 0.00 0.00 0.00 56 1003.0
20260503175851 90 153 0.0 0.0 0.00 0.00 0.00 56 1003.0
20260503175351 90 154 0.0 0.0 0.00 0.00 0.00 56 1003.0
20260503174850 90 351 5.0 7.0 0.00 0.00 0.00 56 1003.0
20260503174351 90 230 0.0 1.0 0.00 0.00 0.00 59 1003.0
20260503173850 90 286 3.0 3.0 0.00 0.00 0.00 57 1003.0
20260503173351 91 310 5.0 6.0 0.00 0.00 0.00 60 1003.0
20260503172851 91 308 5.0 6.0 0.00 0.00 0.00 64 1003.0
20260503172351 91 143 1.0 1.0 0.00 0.00 0.00 64 1003.0
20260503171851 91 203 5.0 6.0 0.00 0.00 0.00 63 1002.0
20260503171351 91 177 3.0 5.0 0.00 0.00 0.00 62 1002.0
20260503170850 91 201 2.0 3.0 0.00 0.00 0.00 62 1003.0
20260503170352 91 169 1.0 1.0 0.00 0.00 0.00 62 1002.0
20260503150851 91 97 1.0 1.0 0.00 0.00 0.00 58 1001.0
20260503150350 91 182 6.0 7.0 0.00 0.00 0.00 58 1001.0
20260503131351 93 150 7.0 9.0 0.00 0.00 0.00 58 999.0
20260503130852 93 183 8.0 9.0 0.00 0.00 0.00 58 999.0
20260503130350 93 143 5.0 7.0 0.00 0.00 0.00 59 999.0
20260503110352 93 108 6.0 8.0 0.00 0.00 0.00 60 998.0
20260503090351 98 147 4.0 7.0 0.00 0.00 0.00 50 999.0
20260503081350 99 118 5.0 9.0 0.00 0.00 0.00 49 999.0
20260503080850 99 172 8.0 10.0 0.00 0.00 0.00 50 999.0
20260503080352 99 59 5.0 6.0 0.00 0.00 0.00 50 999.0